EW4784 Weather Reports


time (UTC)temp
C
wind
direction
speed
KPH
gust
KPH
rain 1hr
cm
rain 24hr
cm
rain mn
cm
humidity
%
barometer
mb
20260510220325 16 346 17.7 41.8 0.00 0.00 0.00 31
20260510215824 15 342 14.5 35.4 0.00 0.00 0.00 32
20260510215323 15 0 12.9 35.4 0.00 0.00 0.00 32
20260510214822 16 341 16.1 27.4 0.00 0.00 0.00 30
20260510214321 16 313 20.9 45.1 0.00 0.00 0.00 31
20260510213820 15 324 24.1 49.9 0.00 0.00 0.00 32
20260510213340 16 319 24.1 57.9 0.00 0.00 0.00 30
20260510212818 16 322 19.3 32.2 0.00 0.00 0.00 30
20260510212317 16 281 16.1 32.2 0.00 0.00 0.00 30
20260510211816 16 325 17.7 35.4 0.00 0.00 0.00 30
20260510211315 16 335 17.7 35.4 0.00 0.00 0.00 31
20260510210814 16 332 17.7 32.2 0.00 0.00 0.00 31
20260510210313 15 312 20.9 48.3 0.00 0.00 0.00 30
20260510205812 16 297 14.5 32.2 0.00 0.00 0.00 30
20260510205311 16 334 20.9 43.5 0.00 0.00 0.00 30
20260510204810 16 353 16.1 46.7 0.00 0.00 0.00 31
20260510204309 16 303 11.3 29.0 0.00 0.00 0.00 30
20260510203829 16 348 20.9 38.6 0.00 0.00 0.00 29
20260510203307 16 359 22.5 49.9 0.00 0.00 0.00 31
20260510202806 16 349 17.7 32.2 0.00 0.00 0.00 31
20260510202306 16 339 17.7 32.2 0.00 0.00 0.00 32
20260510201804 15 330 14.5 40.2 0.00 0.00 0.00 31
20260510201304 15 283 8.0 25.7 0.00 0.00 0.00 32
20260510200802 15 336 11.3 22.5 0.00 0.00 0.00 29
20260510200301 15 299 12.9 33.8 0.00 0.00 0.00 30
20260510195800 15 322 16.1 37.0 0.00 0.00 0.00 31
20260510195259 15 354 14.5 40.2 0.00 0.00 0.00 31
20260510194758 15 330 19.3 30.6 0.00 0.00 0.00 28
20260510194257 16 354 14.5 29.0 0.00 0.00 0.00 30
20260510193756 15 309 16.1 30.6 0.00 0.00 0.00 29
20260510193255 15 317 19.3 38.6 0.00 0.00 0.00 31
20260510192815 15 328 16.1 29.0 0.00 0.00 0.00 31
20260510192253 15 316 22.5 51.5 0.00 0.00 0.00 30
20260510191752 15 296 9.7 30.6 0.00 0.00 0.00 30
20260510191251 15 298 16.1 29.0 0.00 0.00 0.00 29
20260510190811 16 343 20.9 38.6 0.00 0.00 0.00 29
20260510190249 16 301 16.1 48.3 0.00 0.00 0.00 30
20260510185748 16 332 17.7 33.8 0.00 0.00 0.00 30
20260510185247 15 291 16.1 32.2 0.00 0.00 0.00 29
20260510184746 16 274 14.5 49.9 0.00 0.00 0.00 29
20260510184245 16 338 19.3 33.8 0.00 0.03 0.00 29
20260510183744 16 353 20.9 45.1 0.00 0.08 0.00 29
20260510183243 16 329 17.7 38.6 0.00 0.08 0.00 28
20260510182742 16 339 11.3 30.6 0.00 0.08 0.00 28
20260510182241 15 335 24.1 43.5 0.00 0.08 0.00 31
20260510181801 15 331 20.9 33.8 0.00 0.08 0.00 32
20260510181300 15 3 20.9 41.8 0.00 0.08 0.00 29
20260510180759 16 330 12.9 24.1 0.00 0.08 0.00 27
20260510180237 17 4 14.5 29.0 0.00 0.08 0.00 31
20260510175757 16 354 20.9 33.8 0.00 0.08 0.00 29
20260510175235 16 351 17.7 30.6 0.00 0.08 0.00 31
20260510174734 16 342 19.3 35.4 0.00 0.08 0.00 29
20260510174233 16 318 20.9 46.7 0.00 0.08 0.00 29
20260510173732 16 324 19.3 38.6 0.00 0.08 0.00 29
20260510173252 16 344 17.7 30.6 0.00 0.08 0.00 29
20260510172730 16 351 20.9 38.6 0.00 0.08 0.00 29
20260510172229 16 0 19.3 37.0 0.00 0.08 0.00 29
20260510171728 16 17 12.9 33.8 0.00 0.08 0.00 32
20260510171227 15 342 11.3 27.4 0.00 0.08 0.00 29
20260510170726 16 352 24.1 35.4 0.00 0.08 0.00 30
20260510170225 16 354 20.9 33.8 0.00 0.08 0.00 31
20260510165724 15 4 24.1 38.6 0.00 0.08 0.00 31
20260510165223 15 2 27.4 46.7 0.00 0.08 0.00 31
20260510164722 15 343 16.1 29.0 0.00 0.08 0.00 32
20260510164221 15 4 16.1 27.4 0.00 0.08 0.00 32
20260510163720 15 11 24.1 48.3 0.00 0.08 0.00 31
20260510163219 15 342 19.3 33.8 0.00 0.08 0.00 30
20260510162717 15 354 22.5 43.5 0.00 0.08 0.00 32
20260510162216 15 302 12.9 24.1 0.00 0.08 0.00 30
20260510161716 14 342 24.1 53.1 0.00 0.08 0.00 33
20260510161215 14 321 25.7 46.7 0.00 0.08 0.00 33
20260510160714 14 315 20.9 43.5 0.00 0.08 0.00 31
20260510160213 15 352 20.9 32.2 0.00 0.08 0.00 35
20260510155732 14 0 20.9 32.2 0.00 0.08 0.00 35
20260510155210 14 344 20.9 38.6 0.00 0.08 0.00 34
20260510154710 13 346 16.1 37.0 0.00 0.08 0.00 36
20260510154209 13 329 19.3 35.4 0.00 0.08 0.00 32
20260510153707 14 338 20.9 38.6 0.00 0.08 0.00 33
20260510153207 14 354 19.3 37.0 0.00 0.08 0.00 33
20260510152706 15 330 17.7 45.1 0.00 0.08 0.00 34
20260510152205 14 353 14.5 30.6 0.00 0.08 0.00 35
20260510151703 13 329 19.3 45.1 0.00 0.08 0.00 33
20260510151203 13 346 19.3 37.0 0.00 0.08 0.00 35
20260510150702 13 313 14.5 33.8 0.00 0.08 0.00 35
20260510150221 13 335 12.9 24.1 0.00 0.08 0.00 35
20260510145659 13 339 14.5 20.9 0.00 0.08 0.00 35
20260510145159 13 4 14.5 22.5 0.00 0.08 0.00 38
20260510144657 13 358 16.1 37.0 0.00 0.08 0.00 38
20260510144157 12 358 19.3 37.0 0.00 0.08 0.00 39
20260510143655 12 351 14.5 30.6 0.00 0.08 0.00 38
20260510143155 12 346 20.9 43.5 0.00 0.08 0.00 40
20260510142653 12 321 9.7 24.1 0.00 0.08 0.00 40
20260510142152 12 326 11.3 20.9 0.00 0.08 0.00 42
20260510141651 12 271 8.0 20.9 0.00 0.08 0.00 41
20260510141150 12 11 6.4 25.7 0.00 0.08 0.00 44
20260510140650 11 350 9.7 22.5 0.00 0.08 0.00 43
20260510140148 11 347 4.8 12.9 0.00 0.08 0.00 44
20260510135647 11 209 4.8 11.3 0.00 0.08 0.00 44
20260510135146 11 303 8.0 16.1 0.00 0.08 0.00 43
20260510134645 11 346 12.9 19.3 0.00 0.08 0.00 44
20260510134144 11 333 3.2 17.7 0.00 0.08 0.00 44
20260510133644 11 7 12.9 22.5 0.00 0.08 0.00 45
20260510133142 11 13 14.5 25.7 0.00 0.08 0.00 46
20260510132642 10 342 11.3 22.5 0.00 0.08 0.00 46
20260510132140 10 4 11.3 27.4 0.00 0.08 0.00 47
20260510131639 10 1 12.9 24.1 0.00 0.08 0.00 47
20260510131200 10 342 11.3 22.5 0.00 0.08 0.00 45
20260510130637 10 352 9.7 24.1 0.00 0.08 0.00 48
20260510130157 9 355 16.1 24.1 0.00 0.08 0.00 47
20260510125635 9 349 11.3 22.5 0.00 0.08 0.00 47
20260510125155 9 18 8.0 17.7 0.00 0.08 0.00 50
20260510124633 9 8 6.4 17.7 0.00 0.08 0.00 49
20260510124132 8 3 11.3 20.9 0.00 0.08 0.00 50
20260510123631 8 352 9.7 19.3 0.00 0.08 0.00 51
20260510123151 8 359 6.4 16.1 0.00 0.08 0.00 53
20260510122629 8 3 3.2 12.9 0.00 0.08 0.00 53
20260510122128 8 349 8.0 22.5 0.00 0.08 0.00 53
20260510121627 7 350 11.3 20.9 0.00 0.08 0.00 55
20260510121126 7 355 12.9 24.1 0.00 0.08 0.00 55
20260510120625 7 358 20.9 29.0 0.00 0.08 0.00 56
20260510120145 7 358 12.9 22.5 0.00 0.08 0.00 58
20260510115623 6 347 12.9 27.4 0.00 0.08 0.00 59
20260510115143 6 12 9.7 17.7 0.00 0.08 0.00 61
20260510114642 6 1 4.8 12.9 0.00 0.08 0.00 62
20260510114141 6 13 9.7 20.9 0.00 0.08 0.00 62
20260510113640 6 6 12.9 27.4 0.00 0.08 0.00 63
20260510113118 6 5 8.0 20.9 0.00 0.08 0.00 64
20260510112617 5 0 9.7 16.1 0.00 0.08 0.00 66
20260510112116 5 3 11.3 19.3 0.00 0.08 0.00 68
20260510111615 5 6 11.3 20.9 0.00 0.08 0.00 70
20260510111114 4 353 9.7 17.7 0.00 0.08 0.00 72
20260510110613 4 355 6.4 11.3 0.00 0.08 0.00 72
20260510110112 4 350 6.4 9.7 0.00 0.08 0.00 74
20260510105611 3 0 6.4 9.7 0.00 0.08 0.00 75
20260510105110 3 352 4.8 11.3 0.00 0.08 0.00 76
20260510104609 3 354 4.8 9.7 0.00 0.08 0.00 79
20260510104108 3 349 6.4 11.3 0.00 0.08 0.00 78
20260510103607 3 358 3.2 4.8 0.00 0.08 0.00 78
20260510103107 3 356 4.8 9.7 0.00 0.08 0.00 79
20260510102605 3 357 6.4 9.7 0.00 0.08 0.00 80
20260510102104 3 349 4.8 9.7 0.00 0.08 0.00 80
20260510101603 3 6 4.8 9.7 0.00 0.08 0.00 79
20260510101102 3 356 3.2 8.0 0.00 0.08 0.00 79
20260510100601 3 338 1.6 8.0 0.00 0.08 0.00 79
20260510100100 3 3 1.6 6.4 0.00 0.08 0.00 79
20260510095559 3 4 3.2 11.3 0.00 0.08 0.00 76
20260510095058 4 3 0.0 0.0 0.00 0.08 0.00 75
20260510094557 4 3 0.0 0.0 0.00 0.08 0.00 75
20260510094117 4 3 0.0 0.0 0.00 0.08 0.00 74
20260510093555 5 0 1.6 4.8 0.00 0.08 0.00 72
20260510093054 5 354 1.6 6.4 0.00 0.08 0.00 69
20260510092553 5 342 0.0 0.0 0.00 0.08 0.00 68
20260510092052 5 345 3.2 9.7 0.00 0.08 0.00 67
20260510091551 6 0 4.8 11.3 0.00 0.08 0.00 66
20260510091050 6 356 8.0 16.1 0.00 0.08 0.00 66
20260510090549 6 3 9.7 17.7 0.00 0.08 0.00 66
20260510090048 6 0 14.5 27.4 0.00 0.08 0.00 66
20260510085547 6 357 14.5 25.7 0.00 0.08 0.00 66
20260510085046 6 359 11.3 20.9 0.00 0.08 0.00 66
20260510084606 6 356 12.9 22.5 0.00 0.08 0.00 65
20260510084044 6 358 12.9 20.9 0.00 0.08 0.00 66
20260510083543 6 352 12.9 25.7 0.00 0.08 0.00 65
20260510083103 6 355 11.3 24.1 0.00 0.08 0.00 65
20260510082540 6 2 8.0 17.7 0.00 0.08 0.00 65
20260510082040 6 5 9.7 25.7 0.00 0.08 0.00 64
20260510081559 6 355 12.9 22.5 0.00 0.08 0.00 63
20260510081038 6 2 14.5 25.7 0.00 0.08 0.00 63
20260510080557 7 359 14.5 22.5 0.00 0.08 0.00 62
20260510080036 7 353 14.5 27.4 0.00 0.08 0.00 62
20260510075556 7 358 14.5 24.1 0.00 0.08 0.00 61
20260510075033 7 3 12.9 25.7 0.00 0.08 0.00 62
20260510074533 7 8 14.5 27.4 0.00 0.08 0.00 61
20260510074032 7 8 11.3 27.4 0.00 0.08 0.00 62
20260510073531 7 4 12.9 32.2 0.00 0.08 0.00 63
20260510073030 7 6 8.0 20.9 0.00 0.08 0.00 64
20260510072528 7 6 9.7 27.4 0.00 0.08 0.00 65
20260510072027 7 359 8.0 17.7 0.00 0.08 0.00 65
20260510071526 7 0 6.4 12.9 0.00 0.08 0.00 62
20260510071025 7 3 6.4 17.7 0.00 0.08 0.00 61
20260510070525 7 12 8.0 17.7 0.00 0.08 0.00 60
20260510070024 7 6 4.8 16.1 0.00 0.08 0.00 60
20260510065523 7 20 8.0 20.9 0.00 0.08 0.00 60
20260510065021 7 22 8.0 14.5 0.00 0.08 0.00 61
20260510064520 7 10 8.0 17.7 0.00 0.08 0.00 64
20260510064020 7 9 11.3 20.9 0.00 0.08 0.00 67
20260510063519 7 5 6.4 22.5 0.00 0.08 0.00 68
20260510063018 8 5 0.0 4.8 0.00 0.08 0.00 66
20260510062538 8 38 1.6 11.3 0.00 0.08 0.00 65
20260510062037 8 17 3.2 8.0 0.00 0.08 0.00 66
20260510061515 8 6 8.0 19.3 0.00 0.08 0.00 66
20260510061013 8 9 6.4 14.5 0.00 0.08 0.00 67
20260510060512 8 4 1.6 4.8 0.00 0.08 0.00 67
20260510060012 8 8 1.6 6.4 0.00 0.08 0.00 66
20260510055511 8 13 1.6 6.4 0.00 0.08 0.00 66
20260510055009 8 22 4.8 14.5 0.00 0.08 0.00 66
20260510054509 8 6 6.4 19.3 0.00 0.08 0.00 66
20260510054007 9 13 0.0 0.0 0.00 0.08 0.00 66
20260510053507 9 13 0.0 4.8 0.00 0.08 0.00 65
20260510053005 9 13 0.0 4.8 0.00 0.08 0.00 64
20260510052504 9 8 1.6 8.0 0.00 0.08 0.00 64
20260510052003 10 24 4.8 17.7 0.00 0.08 0.00 63
20260510051502 10 6 3.2 8.0 0.00 0.08 0.00 64
20260510051001 10 1 4.8 11.3 0.00 0.08 0.00 64
20260510050500 10 20 4.8 16.1 0.00 0.08 0.00 64
20260510050030 10 16 3.2 9.7 0.00 0.08 0.00 63
20260510045959 10 16 3.2 9.7 0.00 0.08 0.00 63
20260510045458 10 21 0.0 4.8 0.00 0.08 0.00 61
20260510044957 10 339 0.0 0.0 0.00 0.08 0.00 61
20260510044456 10 4 1.6 8.0 0.00 0.08 0.00 60
20260510043956 10 10 4.8 11.3 0.00 0.08 0.00 60
20260510043454 10 19 8.0 22.5 0.00 0.08 0.00 61
20260510042953 10 16 4.8 12.9 0.00 0.08 0.00 62
20260510042452 10 2 0.0 3.2 0.00 0.08 0.00 62
20260510041951 10 28 1.6 8.0 0.00 0.08 0.00 63
20260510041450 11 9 6.4 14.5 0.00 0.08 0.00 63
20260510040949 11 358 6.4 11.3 0.00 0.08 0.00 61
20260510040448 11 359 4.8 11.3 0.00 0.08 0.00 60
20260510035947 11 343 1.6 8.0 0.00 0.08 0.08 58
20260510035507 11 352 4.8 14.5 0.00 0.08 0.08 56
20260510034945 11 7 4.8 12.9 0.00 0.08 0.08 57
20260510034444 12 357 8.0 11.3 0.00 0.08 0.08 55
20260510033943 12 2 6.4 11.3 0.00 0.08 0.08 55
20260510033442 12 351 9.7 24.1 0.00 0.08 0.08 54
20260510032941 12 353 9.7 17.7 0.00 0.08 0.08 53
20260510032440 12 351 12.9 20.9 0.00 0.08 0.08 52
20260510031939 12 0 14.5 29.0 0.00 0.08 0.08 52
20260510031439 12 357 9.7 20.9 0.00 0.08 0.08 51
20260510030937 13 356 9.7 24.1 0.00 0.08 0.08 50
20260510030436 13 351 16.1 27.4 0.00 0.08 0.08 50
20260510025935 13 357 16.1 37.0 0.00 0.08 0.08 49
20260510025434 13 351 22.5 41.8 0.00 0.08 0.08 48
20260510024954 13 356 20.9 40.2 0.00 0.08 0.08 49
20260510024432 13 357 14.5 29.0 0.00 0.08 0.08 48
20260510023952 13 352 20.9 40.2 0.00 0.08 0.08 48
20260510023451 13 351 24.1 48.3 0.00 0.08 0.08 47
20260510022950 14 4 17.7 37.0 0.00 0.08 0.08 46
20260510022428 14 359 20.9 33.8 0.00 0.08 0.08 46
20260510021927 14 3 24.1 43.5 0.00 0.08 0.08 46
20260510021426 14 357 24.1 37.0 0.00 0.08 0.08 45
20260510020946 15 4 20.9 35.4 0.00 0.08 0.08 45
20260510020424 15 354 30.6 64.4 0.00 0.08 0.08 44
20260510015923 15 357 27.4 66.0 0.00 0.08 0.08 44
20260510015422 15 348 24.1 48.3 0.00 0.08 0.08 45
20260510014942 16 353 27.4 49.9 0.00 0.08 0.08 46
20260510014420 16 353 22.5 54.7 0.00 0.08 0.08 47
20260510013919 16 353 20.9 33.8 0.00 0.08 0.08 48
20260510013418 15 350 14.5 35.4 0.00 0.08 0.08 49
20260510012917 15 349 12.9 27.4 0.00 0.08 0.08 50
20260510012416 15 2 12.9 19.3 0.00 0.08 0.08 50
20260510011915 15 351 11.3 20.9 0.00 0.08 0.08 50
20260510011414 15 353 16.1 27.4 0.00 0.08 0.08 50
20260510010913 15 354 12.9 20.9 0.00 0.08 0.08 50
20260510010417 15 357 14.5 24.1 0.00 0.08 0.08 50
20260510005932 15 357 11.3 24.1 0.00 0.08 0.08 50
20260510005431 16 358 8.0 16.1 0.00 0.08 0.08 50
20260510004909 16 358 9.7 19.3 0.00 0.08 0.08 50
20260510004408 16 358 6.4 14.5 0.00 0.08 0.08 50
20260510003906 16 355 6.4 17.7 0.00 0.08 0.08 50
20260510003406 16 353 6.4 9.7 0.00 0.08 0.08 50
20260510002905 16 357 6.4 14.5 0.00 0.08 0.08 51
20260510002403 17 352 6.4 14.5 0.00 0.08 0.08 48
20260510001903 17 314 11.3 24.1 0.00 0.08 0.08 46
20260510001423 17 321 11.3 24.1 0.00 0.08 0.08 45
20260510000901 17 333 9.7 24.1 0.00 0.08 0.08 45
20260510000421 17 313 8.0 25.7 0.00 0.08 0.08 43
20260509235858 17 315 14.5 29.0 0.00 0.08 0.08 42
20260509235418 18 310 16.1 38.6 0.00 0.08 0.08 41
20260509234918 18 310 24.1 56.3 0.00 0.08 0.08 41
20260509234356 18 305 17.7 67.6 0.00 0.08 0.08 41
20260509233916 18 302 14.5 29.0 0.00 0.08 0.08 42
20260509233353 18 314 25.7 66.0 0.00 0.08 0.08 40
20260509232853 18 310 29.0 49.9 0.00 0.08 0.08 39
20260509232351 18 308 22.5 41.8 0.00 0.08 0.08 41
20260509231850 19 301 19.3 38.6 0.00 0.08 0.08 39
20260509231350 20 308 19.3 43.5 0.00 0.08 0.08 38
20260509230849 20 327 24.1 45.1 0.00 0.08 0.08 38
20260509230348 20 338 22.5 56.3 0.00 0.08 0.08 38
20260509225846 21 340 20.9 49.9 0.00 0.08 0.08 37
20260509225345 21 323 27.4 61.2 0.00 0.08 0.08 36
20260509224844 21 329 22.5 61.2 0.00 0.08 0.08 37
20260509224405 21 322 22.5 45.1 0.00 0.08 0.08 36
20260509223843 21 341 30.6 69.2 0.00 0.08 0.08 35
20260509223342 21 314 32.2 69.2 0.00 0.08 0.08 34
20260509222901 21 311 33.8 62.8 0.00 0.08 0.08 33
20260509222340 21 303 30.6 61.2 0.00 0.08 0.08 33
20260509221859 21 323 30.6 54.7 0.00 0.08 0.08 34
20260509221337 21 313 30.6 62.8 0.00 0.08 0.08 34
20260509220836 21 305 32.2 59.5 0.00 0.08 0.08 32